Regional Weather Roundup
Issued by NWS Cleveland, OH

Home | Current Version | Previous Version | Graphics & Text | Print | Product List | Glossary On
Versions: 1 2 3 4 5 6 7 8 9 10 11 12 13 14 15 16 17 18 19 20 21 22 23 24 25 26 27 28 29 30 31 32 33 34 35 36 37 38 39 40 41 42 43 44 45 46 47 48 49 50
000
ASUS41 KCLE 131802
RWRCLE
OHIO REGIONAL WEATHER ROUNDUP
NATIONAL WEATHER SERVICE CLEVELAND, OH
100 PM EST WED DEC 13 2017

NOTE: "FAIR" INDICATES FEW OR NO CLOUDS BELOW 12,000 FEET WITH NO
SIGNIFICANT WEATHER AND/OR OBSTRUCTIONS TO VISIBILITY.

OHZ001>008-015>018-024>027-034-035-043-044-131900-
   NORTHWEST OHIO

CITY           SKY/WX    TMP DP  RH WIND       PRES   REMARKS
DEFIANCE       CLOUDY    25  11  55 S16G23    29.56F WCI  12
FINDLAY        CLOUDY    24  12  60 SE16      29.62F WCI  11
TOLEDO EXPRESS SNOW      22  17  81 SE8       29.60F VSB 1/2 WCI  12
TOLEDO EXEC    LGT SNOW  22  16  78 S15       29.65F WCI   9
LIMA           CLOUDY    24  13  62 S20G28    29.58F WCI  10
$$

OHZ009>014-019>023-028>033-038-089-131900-
   NORTHEAST OHIO

CITY           SKY/WX    TMP DP  RH WIND       PRES   REMARKS
CLE-HOPKINS    LGT SNOW  22  17  81 S10       29.72F WCI  11
CLE-LAKEFRONT  LGT SNOW  23  15  71 S10       29.71F WCI  12
CUY CO. ARPT   SNOWSHWR  23  16  74 S13       29.70F WCI  11
LORAIN-ELYRIA  LGT SNOW  20  13  74 S14       29.70F VSB 1   WCI   7
ASHTABULA      CLOUDY    20  12  71 SW10      29.71F WCI   9
AKRON-CANTON   LGT SNOW  21  12  68 SW16      29.70F WCI   7
WOOSTER        LGT SNOW  19  15  84 S10       29.70F VSB 3/4 WCI   7
MANSFIELD      LGT SNOW  20  11  68 S15       29.67F WCI   6
YOUNGSTOWN     LGT SNOW  21  11  65 SW13      29.70F WCI   9
$$

OHZ042-051>053-060>062-070>072-077>081-131900-
  SOUTHWEST OHIO

CITY           SKY/WX    TMP DP  RH WIND       PRES   REMARKS
CINC-COVINGTON CLOUDY    32  12  43 S13G23    29.64F WCI  22
CINC-LUNKEN    CLOUDY    34  10  37 S13       29.69F WCI  25
HAMILTON       CLOUDY    33  10  38 S12G17    29.66F WCI  24
DAYTON         CLOUDY    26  12  55 S12       29.64F WCI  16
WRIGHT-PAT AFB PTSUNNY   28   7  40 S15       29.63F WCI  16
DAYTON GENERAL CLOUDY    28  11  48 S17G24    29.63F WCI  16
WILMINGTON     CLOUDY    27  13  55 S15       29.66F WCI  15
$$

OHZ036-037-039>041-045>050-054>059-063>069-073>076-082>088-131900-
  CENTRAL AND SOUTHEAST OHIO

CITY           SKY/WX    TMP DP  RH WIND       PRES   REMARKS
COLUMBUS       CLOUDY    25  11  55 SE9       29.73F WCI  15
OSU AIRPORT    CLOUDY    24  12  60 S13       29.70F WCI  12
BOLTON FIELD   CLOUDY    25  12  58 S12       29.72F WCI  14
RICKENBACK AFB CLOUDY    25  11  56 S13       29.73F WCI  14
NEWARK         CLOUDY    25   8  48 S10       29.74F WCI  15
MARION         NOT AVBL
LANCASTER      CLOUDY    25  10  53 S13       29.74F WCI  14
ZANESVILLE     CLOUDY    25   6  44 S8        29.76F WCI  16
NEW PHILLY     NOT AVBL
$$




USA.gov is the U.S. government's official web portal to all federal, state and local government web resources and services.